Preview of NWS' New Version of Forecast
This preview is not operational and should not be used for support decisions.

Regional Weather Roundup (RWR)

Issued by Gray - Portland, ME (GYX)

                            
000
ASUS41 KGYX 142110
RWRGYX
WEATHER ROUNDUP FOR MAINE AND NEW HAMPSHIRE
NATIONAL WEATHER SERVICE GRAY ME
500 PM EDT SUN OCT 14 2018

MEZ002-005-006-010-012-015-018-020-021-024-026-027-029-142200-
MAINE
  
CITY           SKY/WX    TMP DP  RH WIND       PRES   REMARKS
PORTLAND       FAIR      56  36  47 W6        30.14S                  
SANFORD        FAIR      56  37  49 SW9       30.15R                  
BAR HARBOR     FAIR      53  32  44 W3        30.11S                  
WISCASSET      FAIR      52  38  58 SW8       30.14S                  
ROCKLAND       FAIR      52  38  58 SW9       30.12S                  
FRYEBURG       FAIR      56  34  43 VRB3      30.12R                  
LEWISTONAUBURN FAIR      55  37  50 SW6       30.12S                  
AUGUSTA        FAIR      55  30  38 W8        30.11S                  
WATERVILLE     FAIR      56  31  38 W6        30.08S                  
BANGOR         FAIR      54  29  38 SW6       30.09F                  
GREENVILLE       N/A     47  27  45 VRB6G17   30.05R                  
MILLINOCKET    FAIR      52  28  39 W6        30.08R                  
HOULTON        FAIR      47  28  47 W7        30.04                   
PRESQUE ISLE   FAIR      45  27  49 W10       30.04R                  
FRENCHVILLE    FAIR      47  25  42 W15       30.00R                  
CARIBOU        FAIR      47  26  44 W7        30.02R                  
$$

NHZ002-005-008-009-011-012-014-142200-
NEW HAMPSHIRE
  
CITY           SKY/WX    TMP DP  RH WIND       PRES   REMARKS
PORTSMOUTH     MOSUNNY   57  35  44 SW9       30.14S                  
ROCHESTER      FAIR      56  35  45 SW5       30.15S                  
NASHUA         FAIR      57  41  55 W5        30.17S                  
MANCHESTER     FAIR      58  38  47 SW8       30.14F                  
CONCORD        FAIR      57  35  43 W6        30.15S                  
LACONIA        FAIR      55  33  43 W8        30.15R                  
PLYMOUTH       FAIR      56  32  39 SW3       30.13S                  
BERLIN         FAIR      53  27  36 W8        30.11S                  
WHITEFIELD     FAIR      53  31  42 SW7       30.13R                  
JAFFREY        FAIR      54  40  59 VRB7      30.16F                  
KEENE          FAIR      57  37  47 W7        30.16S                  
LEBANON        FAIR      58  30  34 W7        30.14S                  
MT WASHINGTON  PTCLDY    27  21  80 W36G44      N/A  WCI   9          
$$

VTZ005-007-008-142200-
VERMONT
  
CITY           SKY/WX    TMP DP  RH WIND       PRES   REMARKS
ST JOHNSBURY     N/A     54  26  34 MISG      30.12S                  
MONTPELIER     FAIR      52  31  44 NW7       30.17S                  
BURLINGTON     FAIR      56  33  42 S8        30.14S                  
$$

MAZ007-012-024-CTZ003-RIZ002-NYZ038-NYZ072-142200-
SOUTHERN NEW ENGLAND AND NY
  
CITY           SKY/WX    TMP DP  RH WIND       PRES   REMARKS
BOSTON         PTSUNNY   59  38  45 W13G18    30.18S                  
WORCESTER      FAIR      53  39  59 W13       30.17F                  
NANTUCKET      FAIR      56  40  55 W10       30.20F                  
PROVIDENCE     PTSUNNY   56  40  55 W5        30.20S                  
HARTFORD       PTSUNNY   57  39  51 SW5       30.18F                  
ALBANY         FAIR      58  39  49 S6        30.17S                  
NEW YORK CITY  PTSUNNY   59  38  45 SW9       30.20F                  
$$

ANZ081-ANZ082-ANZ150-NHZ014-MEZ023>029-142200-
COASTAL MARINE OBSERVATIONS
  
STATION/POSITION TIME  TEMP    WIND        PRES    WAVE
                       AIR SEA DIR/SP/G            HT/PER
                 (UTC) (F)     (DEG/KT/KT) (MB)    (FT/S)
MOUNT DESERT ROC 2100   50     230/ 20/ 22 1020.3R
MATINICUS ROCK   2000   51     240/ 17/ 18 1020.0R
ISLE OF SHOALS   2000   55     270/ 10/ 10 1020.8R
JEFFREYS LEDGE   2006      56                N/A     2/ 3
$$

.............KEY..............
   WCI - WIND CHILL
   TC  - TEMPERATURE IN CELSIUS
   VSB - VISIBILITY IN MILES
   HX  - HEAT INDEX
   FAIR- INDICATES FEW OR NO CLOUDS BELOW 12,000 FT, WITH NO 
         SIGNIFICANT WEATHER AND/OR OBSTRUCTIONS TO VISIBILITY.